Location: Moscow
(55.7500°N, 37.5830°E)
Time: 04:16:35
(UTC+03:00)

Kosmos-337 - Pass Details

Date: 06 July 2022
Orbit: 1467 x 1552 km, 74.0° (Epoch: 13 August)

Event Time Altitude Azimuth Distance (km) Brightness Sun altitude
Rises 01:54:01 0° 332° (NNW) 4,738 ? -9.7°
Reaches altitude 10° 01:57:06 10° 328° (NNW) 3,750 ? -9.6°
Maximum altitude 02:05:44 48° 258° (WSW) 1,936 ? -9.2°
Drops below altitude 10° 02:14:15 10° 188° (S) 3,695 ? -8.7°
Enters shadow 02:14:43 - 187° (S) 3,841 ? -8.7°
